Regional Weather Roundup
Issued by NWS

Home | Current Version | Previous Version | Graphics & Text | Print | Product List | Glossary On
Versions: 1 2 3 4 5 6 7 8 9 10 11 12 13 14 15 16 17 18 19 20 21 22 23 24 25 26 27
000
ASUS45 KBOU 240407
RWRCO

WEATHER ROUNDUP FOR COLORADO
NATIONAL WEATHER SERVICE DENVER/BOULDER CO
1000 PM MDT SUN APR 23 2017

NOTE: "FAIR" INDICATES FEW OR NO CLOUDS BELOW 12000 FEET WITH NO
SIGNIFICANT WEATHER AND/OR OBSTRUCTIONS TO VISIBILITY.

COZ001>005-013-030-031-240500-
...NORTHWEST COLORADO...

CITY           SKY/WX    TMP DP  RH WIND       PRES   REMARKS
CRAIG          FAIR      51  35  54 NW8       29.78R
HAYDEN         FAIR      50  27  40 S3        29.78S
MEEKER         MOCLDY    55  30  38 CALM      29.77S
MOUNT WERNER   NOT AVBL
STEAMBOAT SPGS FAIR      53  28  37 E6        29.79F
WALDEN           N/A     45  25  45 S3        29.87S
$$

COZ006>008-011-240500-
...WEST CENTRAL VALLEYS...

CITY           SKY/WX    TMP DP  RH WIND       PRES   REMARKS
GRAND JUNCTION FAIR      62  22  21 E5        29.67S
MONTROSE       FAIR      58  22  24 SE12      29.76F
EAGLE          FAIR      53  22  29 SE5       29.81F
RIFLE          FAIR      58  25  28 E7        29.72S
DELTA          FAIR      65  19  17 CALM      29.72S
NUCLA          FAIR      61  10  13 S8        29.81R
$$

COZ017>023-064>068-240500-
...SOUTHWEST COLORADO...

CITY           SKY/WX    TMP DP  RH WIND       PRES   REMARKS
DURANGO        FAIR      56  17  21 SW7       29.89S
CORTEZ         FAIR      50  22  33 CALM      29.84R
PAGOSA SPRINGS FAIR      52  25  34 CALM      29.96R
TELLURIDE      FAIR      54  14  20 S7G17     29.99F
WOLF CREEK PAS CLOUDY    36  19  51 S23G36    30.19F
$$

COZ009-010-012-014-032>034-037-058>063-240500-
...CENTRAL COLORADO...

CITY           SKY/WX    TMP DP  RH WIND       PRES   REMARKS
ASPEN          FAIR      50  22  33 S8        29.84F
BUENA VISTA    FAIR      47  15  28 W8        29.89F
COPPER MTN     FAIR      41  12  30 S16       30.10F
BERTHOUD PASS  FAIR      32  23  69 W25G38    30.08F WCI  19
COTTONWOOD PAS FAIR      50   9  18 SW9       30.00F
GUNNISON       FAIR      44  22  41 E3        29.90S
KREMMLING      FAIR      55  21  26 CALM      29.83F
LEADVILLE      FAIR      44  13  28 S3        29.98F
MONARCH PASS   FAIR      36  14  41 W21G26    30.21F
SALIDA         FAIR      55  15  20 W3        29.95F
SUNLIGHT       FAIR      36  18  48 S10G20    30.02F
WILKERSON PASS FAIR      37  14  38 SW14G22   30.08F
$$

COZ069>075-240500-
...SAN LUIS VALLEY/SANGRE DE CRISTO MOUNTAINS...

CITY           SKY/WX    TMP DP  RH WIND       PRES   REMARKS
ALAMOSA        FAIR      52  26  36 S13       29.91S
LA VETA PASS   FAIR      45  25  45 S22G49    30.11S
SAGUACHE       FAIR      46  16  29 N7        29.91F
$$

COZ035-036-038>040-240500-
...NORTHERN COLORADO FRONT RANGE...

CITY           SKY/WX    TMP DP  RH WIND       PRES   REMARKS
DENVER INTL AP MOCLDY    60  38  43 W12       29.69R
DMNS CITY PARK   N/A     60  38  44 NE8       29.69F
AURORA         MOCLDY    58  35  42 W6        29.71S
FRONT RANGE AP NOT AVBL
ERIE MUNI ARPT FAIR      54  41  62 W3        29.69S
BOULDER MUN AP FAIR      59  32  36 CALM      29.70R
CENTENNIAL     MOCLDY    54  34  46 S5        29.72S
BROOMFIELD     MOCLDY    59  39  47 NW12      29.72R
FORT COLLINS   FAIR      55  42  61 N7        29.69S
LONGMONT       FAIR      55  38  54 NW8       29.70S
$$

COZ041-046-047-076>085-087-088-240500-
...PIKES PEAK/PALMER DIVIDE AND SOUTHERN FOOTHILLS...

CITY           SKY/WX    TMP DP  RH WIND       PRES   REMARKS
COLO. SPRINGS  FAIR      58  34  40 S10       29.78F
A. F. ACADEMY  FAIR      50  35  55 NE5       29.78F
SCHRIEVER AFB  FAIR      50  35  55 SW5       29.78F
ELLICOTT       FAIR       1  32 100 S12       29.76F WCI -16
FALCON         FAIR      50  33  51 W7        29.82F
FORT CARSON    FAIR      60  33  35 W7        29.76S
LIMON          FAIR      46  39  76 SE6       29.73S
MONUMENT HILL  FAIR      50  32  50 SW14      29.81F
TRINIDAD       FAIR      61  31  32 S16       29.80R
$$

COZ042>045-048>051-090-091-240500-
...NORTHEAST COLORADO...

CITY           SKY/WX    TMP DP  RH WIND       PRES   REMARKS
GREELEY ARPT   FAIR      52  43  71 N7        29.67
AKRON          FAIR      52  39  61 SE10      29.67F
BURLINGTON     NOT AVBL
WRAY           NOT AVBL
STERLING       FAIR      61  41  48 S17G23    29.63F
HOLYOKE        FAIR      55  41  58 S14       29.69F
FORT MORGAN    FAIR      55  37  49 E10       29.65F
$$

COZ086-089-092>099-240500-
...SOUTHEAST COLORADO...

CITY           SKY/WX    TMP DP  RH WIND       PRES   REMARKS
PUEBLO         FAIR      58  43  57 W3        29.69S
LA JUNTA       FAIR      69  37  30 S20G28    29.68S
LAMAR          FAIR      63  37  38 S23G32    29.67F
SPRINGFIELD      N/A     57  37  47 S22       29.80S
$$




USA.gov is the U.S. government's official web portal to all federal, state and local government web resources and services.